Flag for U.S.A. Weather past 2 weeks in Hollywood, California, U.S.A.

Now
88 °F

Sunny.


Feels Like: 86 °F
Forecast: 62 / 82 °F
Wind: 10 mph from South

Location: Van Nuys Airport

Current Time: Aug 22, 2014 at 4:56:24 PM

Latest Report: Aug 22, 2014 at 3:51 PM


Visibility: 10 mi

Pressure: 29.88 "Hg

Humidity: 34%

Dew point: 56 °F

Location of HollywoodLocation

Historic Weather in Hollywood — Graph

°F

Hollywood temperature yesterday

Maximum temperature yesterday: 88 °F (at 2:51 PM)
Minimum temperature yesterday: 65 °F (at 5:51 AM)
Average temperature yesterday: 75 °F

Past Weeks' High & Low Weather Summary

 TemperatureHumidityPressure
High98 °F (Aug 16, 2:51 PM)87% (Aug 8, 5:51 AM)29.99 "Hg (Aug 8, 5:51 AM)
Low63 °F (Aug 8, 3:51 AM)11% (Aug 16, 6:51 PM)29.73 "Hg (Aug 18, 3:51 PM)
Average77 °F52%29.90 "Hg
* Reported Aug 7 3:51 PM — Aug 22 3:51 PM, Hollywood, Weather by CustomWeather, © 2014

Note: Actual official high and low records may vary slightly from our data, if they occured in-between our weather recording intervals... More about our weather records

Advertising

Hollywood weather history for previous 24 hours

 ConditionsComfort  
Time TempWeatherWind HumidityBarometerVisibility
3:51 PM
Aug 22
88 °FSunny.10 mph34%29.88 "Hg10 mi
2:51 PM87 °FSunny.10 mph35%29.90 "Hg10 mi
1:51 PM86 °FSunny.9 mph37%29.91 "Hg10 mi
12:51 PM85 °FSunny.9 mph40%29.93 "Hg10 mi
11:51 AM83 °FSunny.8 mph43%29.94 "Hg10 mi
10:51 AM81 °FSunny.6 mph49%29.95 "Hg10 mi
9:51 AM76 °FSunny.No wind56%29.95 "Hg10 mi
8:51 AM74 °FSunny.5 mph60%29.94 "Hg10 mi
7:51 AM70 °FSunny.3 mph68%29.93 "Hg10 mi
6:51 AM68 °FClear.No wind73%29.92 "Hg10 mi
5:51 AM67 °FClear.No wind76%29.90 "Hg10 mi
4:51 AM69 °FClear.No wind73%29.90 "Hg10 mi
3:51 AM69 °FClear.3 mph70%29.92 "Hg10 mi
2:51 AM70 °FClear.3 mph68%29.92 "Hg10 mi
1:51 AM71 °FClear.No wind66%29.91 "Hg10 mi
12:51 AM70 °FClear.No wind68%29.93 "Hg10 mi
11:51 PM
Aug 21
72 °FClear.No wind64%29.93 "Hg10 mi
10:51 PM72 °FPassing clouds.5 mph66%29.94 "Hg10 mi
9:51 PM73 °FPassing clouds.5 mph64%29.93 "Hg10 mi
8:51 PM74 °FPassing clouds.6 mph60%29.91 "Hg10 mi
7:51 PM75 °FSunny.No wind60%29.88 "Hg10 mi
6:51 PM80 °FSunny.9 mph49%29.87 "Hg10 mi
5:51 PM83 °FSunny.12 mph44%29.85 "Hg10 mi
4:51 PM87 °FSunny.10 mph36%29.84 "Hg10 mi
Weather by CustomWeather, © 2014

See weather overviewHow to use our weather pages